User: anonymous   Login
Location: Unspecified
(0.0000°N, 0.0000°E)
Time: 14:52:42
(UTC+00:00)
Language:

Fuji - Orbit

View from above orbital plane
View from above orbital plane
View from above satellite
View from above satellite

Ground track
Ground track

The orbit data is extracted from the following two-line orbital elements,

1 16909U 86061B   17351.93808466 -.00000097 +00000-0 +17733-5 0  9990
2 16909 050.0171 333.8783 0011166 186.9292 191.1808 12.44467450425688
Epoch (UTC): 17 December 2017 22:30:50
Eccentricity: 0.0011166
inclination: 50.0171°
perigee height: 1479 km
apogee height: 1496 km
right ascension of ascending node: 333.8783°
argument of perigee: 186.9292°
revolutions per day: 12.44467450
mean anomaly at epoch: 191.1808°
orbit number at epoch: 42568

The dashed part of the orbit path shows where the satellite is in the earth's shadow,  

DLR